EW9174 Weather Reports


Display with metric or nautical units.
time (UTC)temp
F
wind
direction
speed
MPH
gust
MPH
rain 1hr
in
rain 24hr
in
rain mn
in
humidity
%
barometer
mb
20260902004508 82 70 0.0 1.0 0.00 0.00 0.00 42 1004.2
20260902003006 83 71 0.0 2.0 0.00 0.00 0.00 39 1004.1
20260902001505 86 71 0.0 2.0 0.00 0.00 0.00 36 1004.0
20260902000009 89 74 0.0 1.0 0.00 0.00 0.00 35 1003.9
20260901234502 90 75 0.0 2.0 0.00 0.00 0.00 35 1004.0
20260901233002 91 84 0.0 2.0 0.00 0.00 0.00 33 1004.0
20260901231501 92 80 0.0 2.0 0.00 0.00 0.00 34 1004.0
20260901230002 93 63 0.0 1.0 0.00 0.00 0.00 34 1004.1
20260901224600 93 70 0.0 2.0 0.00 0.00 0.00 33 1004.3
20260901223059 93 102 0.0 1.0 0.00 0.00 0.00 33 1004.3
20260901221601 93 104 0.0 1.0 0.00 0.00 0.00 35 1004.5
20260901220054 93 82 0.0 2.0 0.00 0.00 0.00 34 1004.7
20260901214603 93 63 0.0 1.0 0.00 0.00 0.00 33 1004.8
20260901213116 93 65 0.0 2.0 0.00 0.00 0.00 33 1004.9
20260901211545 92 59 0.0 2.0 0.00 0.00 0.00 34 1005.1
20260901210041 92 61 0.0 3.0 0.00 0.00 0.00 34 1005.4
20260901204538 91 81 0.0 3.0 0.00 0.00 0.00 35 1005.8
20260901203044 90 84 0.0 1.0 0.00 0.00 0.00 35 1006.2
20260901201531 89 85 0.0 2.0 0.00 0.00 0.00 37 1006.3
20260901200034 88 86 0.0 1.0 0.00 0.00 0.00 39 1006.5
20260901194523 87 88 0.0 2.0 0.00 0.00 0.00 45 1006.9
20260901193020 85 91 0.0 1.0 0.00 0.00 0.00 47 1007.0
20260901191516 84 98 0.0 1.0 0.00 0.00 0.00 51 1007.1
20260901190012 83 101 0.0 1.0 0.00 0.00 0.00 54 1007.2
20260901184512 83 105 0.0 4.0 0.00 0.00 0.00 56 1007.5
20260901183009 82 40 0.0 1.0 0.00 0.00 0.00 48 1007.7
20260901181507 80 40 0.0 5.0 0.00 0.00 0.00 46 1007.6
20260901180002 79 44 0.0 3.0 0.00 0.00 0.00 56 1007.8
20260901174600 77 35 0.0 4.0 0.00 0.00 0.00 61 1008.1
20260901173053 75 38 1.0 6.0 0.00 0.00 0.00 64 1008.6
20260901171550 73 45 0.0 4.0 0.00 0.00 0.00 68 1008.7
20260901170043 70 46 0.0 1.0 0.00 0.00 0.00 76 1008.9
20260901164547 69 46 0.0 1.0 0.00 0.00 0.00 75 1009.3
20260901163039 68 46 0.0 0.0 0.00 0.00 0.00 79 1009.3
20260901161546 67 46 0.0 3.0 0.00 0.00 0.00 79 1009.1
20260901160038 67 49 0.0 3.0 0.00 0.00 0.00 81 1008.7
20260901154535 67 49 0.0 2.0 0.00 0.00 0.00 83 1008.7
20260901153043 67 49 0.0 0.0 0.00 0.00 0.00 83 1008.7
20260901151534 66 49 0.0 2.0 0.00 0.00 0.00 83 1008.4
20260901150035 66 50 0.0 0.0 0.00 0.00 0.00 85 1009.0
20260901144532 66 49 0.0 0.0 0.00 0.00 0.00 85 1008.9
20260901143031 66 50 0.0 2.0 0.00 0.00 0.00 84 1008.7
20260901141530 65 50 0.0 2.0 0.00 0.00 0.00 85 1008.9
20260901140029 65 50 0.0 1.0 0.00 0.00 0.00 86 1008.8
20260901134529 64 50 0.0 0.0 0.00 0.00 0.00 88 1008.6
20260901133028 64 50 0.0 0.0 0.00 0.00 0.00 88 1008.4
20260901131527 64 50 0.0 0.0 0.00 0.00 0.00 87 1008.5
20260901130026 64 50 0.0 1.0 0.00 0.00 0.00 87 1008.2
20260901124526 64 50 0.0 0.0 0.00 0.00 0.00 87 1008.0
20260901123035 64 50 0.0 0.0 0.00 0.00 0.00 87 1008.1
20260901121525 64 50 0.0 0.0 0.00 0.00 0.00 87 1008.1
20260901120024 64 50 0.0 0.0 0.00 0.00 0.00 86 1007.8
20260901114522 64 50 0.0 0.0 0.00 0.00 0.00 86 1008.0
20260901113023 64 50 0.0 1.0 0.00 0.00 0.00 85 1007.7
20260901111523 64 50 0.0 3.0 0.00 0.00 0.00 84 1007.6
20260901110022 64 51 0.0 3.0 0.00 0.00 0.00 85 1007.5
20260901104529 64 51 1.0 4.0 0.00 0.00 0.00 85 1007.0
20260901103018 64 53 1.0 4.0 0.00 0.00 0.00 86 1007.2
20260901094507 65 80 0.0 2.0 0.00 0.00 0.00 83 1008.4
20260901093004 65 80 0.0 0.0 0.00 0.00 0.00 80 1008.5
20260901091503 66 80 0.0 0.0 0.00 0.00 0.00 80 1008.3
20260901090006 66 80 0.0 0.0 0.00 0.00 0.00 83 1008.3
20260901084602 66 80 0.0 1.0 0.00 0.00 0.00 80 1008.3
20260901083100 66 80 0.0 0.0 0.00 0.00 0.00 79 1008.3
20260901081558 66 80 0.0 0.0 0.00 0.00 0.00 78 1008.1
20260901074610 67 80 0.0 1.0 0.00 0.00 0.00 75 1008.4
20260901073052 67 80 0.0 1.0 0.00 0.00 0.00 73 1008.6
20260901071552 67 80 0.0 1.0 0.00 0.00 0.00 73 1008.8
20260901070056 67 80 0.0 1.0 0.00 0.00 0.00 74 1008.8
20260901064549 67 80 0.0 0.0 0.00 0.00 0.00 72 1008.6
20260901063051 68 80 0.0 0.0 0.00 0.00 0.00 70 1008.5
20260901061544 68 80 0.0 1.0 0.00 0.00 0.00 70 1008.2
20260901060040 68 80 0.0 1.0 0.00 0.00 0.00 68 1007.8
20260901054540 69 80 0.0 1.0 0.00 0.00 0.00 66 1008.2
20260901053051 69 80 0.0 0.0 0.00 0.00 0.00 65 1008.4
20260901051556 69 80 0.0 1.0 0.00 0.00 0.00 64 1007.7
20260901050037 69 80 0.0 0.0 0.00 0.00 0.00 63 1008.6
20260901044536 69 80 0.0 0.0 0.00 0.00 0.00 62 1008.5
20260901043040 70 80 0.0 0.0 0.00 0.00 0.00 62 1008.6
20260901041550 71 80 0.0 0.0 0.00 0.00 0.00 62 1008.7
20260901040036 71 80 0.0 0.0 0.00 0.00 0.00 61 1008.7
20260901034535 71 80 0.0 0.0 0.00 0.00 0.00 60 1009.1
20260901033034 71 80 0.0 2.0 0.00 0.00 0.00 58 1009.6
20260901031550 71 80 0.0 3.0 0.00 0.00 0.00 59 1009.1
20260901030033 71 80 0.0 3.0 0.00 0.00 0.00 59 1008.9
20260901024532 71 80 0.0 0.0 0.00 0.00 0.00 61 1008.3
20260901023029 71 80 0.0 0.0 0.00 0.00 0.00 60 1007.6
20260901021533 72 80 0.0 1.0 0.00 0.00 0.00 60 1007.3
20260901020027 72 80 0.0 0.0 0.00 0.00 0.00 60 1007.0
20260901014539 72 80 0.0 1.0 0.00 0.00 0.00 60 1006.7
20260901013026 73 80 0.0 1.0 0.00 0.00 0.00 60 1006.6
20260901011529 74 80 0.0 1.0 0.00 0.00 0.00 59 1006.8
20260901010026 75 81 0.0 2.0 0.00 0.00 0.00 58 1006.4